[Date Prev][Date Next][Thread Prev][Thread Next] - [Date Index][Thread Index][Author Index]
2 Line ISS Keps 5-29
- Subject: [sarex] 2 Line ISS Keps 5-29
- From: "Dr Dave Larsen [ PhD ]" <doc@xxxxxxxxxxx>
- Date: Tue, 29 May 2001 04:09:49 -0700
ISS
1 25544U 98067A 01149.16514063 .00035115 00000-0 41535-3 0 145
2 25544 51.5681 184.6857 0017699 97.5752 9.0716 15.60747743144101
----
Via the sarex mailing list at AMSAT.ORG courtesy of AMSAT-NA.
To unsubscribe, send "unsubscribe sarex" to Majordomo@amsat.org
AMSAT Home